[[{"header":{"parameterUnit":"m.s-1","parameterCategory":1,"la1":30.2991,"la2":30.254,"lo1":-89.0895,"lo2":-89.0444,"dy":0.0017,"dx":0.0017,"nx":28,"ny":28,"refTime":"2023-08-10T03:00:00:Z","depth":0,"parameterNumber":2,"parameterNumberName":"U-component_of_WINDS"},"data":[0,0,0,0,0,0,0,0,0,0,0,0,0,0,0,0,0,0,0,0,0,0,0,0,0,0,0,0,0,0,0,0,0,0,0,0,0,0,0,0,0,0,0,0,0,0,0,0,0,0,0,0,0,0,0,0,0,0,4.6586,4.6586,0,4.664,4.6641,4.6641,4.6584,4.6582,4.6579,4.6577,4.6632,4.6635,4.6638,0,0,0,0,0,0,0,0,0,0,0,0,0,4.6429,4.6432,4.6586,4.6586,4.6587,4.664,4.6641,4.6641,4.6584,4.6581,4.6579,4.6576,4.663,4.6634,4.6639,0,0,0,0,0,0,0,0,0,0,0,0,0,4.6491,4.6433,4.6586,4.6565,4.6564,4.664,4.6641,4.6642,4.6585,4.6581,4.6578,4.6575,4.6629,4.6634,4.6639,4.6738,0,0,4.6655,4.6658,0,0,0,0,0,0,0,0,4.6488,4.6497,4.6567,4.6567,4.6565,4.6602,4.6605,4.6674,4.6586,4.6577,4.6577,4.6573,4.6624,4.663,4.6647,4.674,4.6743,4.6656,4.6659,4.6661,4.6663,0,0,0,0,0,0,0,4.6483,4.6494,4.6607,4.6568,4.6567,4.6552,4.6557,4.6618,4.6618,4.6577,4.6573,4.658,4.6623,4.6642,4.6648,4.6744,4.6656,4.666,4.6664,4.6666,4.6914,4.6918,0,0,0,0,0,0,4.6482,4.6491,4.6605,4.6609,4.6518,4.6557,4.6563,4.6593,4.6618,4.6618,4.6583,4.6578,4.6635,4.6642,4.665,4.6762,4.6661,4.6666,4.6669,4.6911,4.6915,4.6919,0,0,0,0,0,0,4.6479,4.6493,4.6603,4.6549,4.6562,4.6563,4.6598,4.6596,4.6615,4.6622,4.6622,4.6603,4.6632,4.6642,4.6715,4.6763,4.6668,4.6673,4.6907,4.6912,4.6917,4.6991,0,0,0,0,0,0,4.6474,4.6492,4.6531,4.655,4.6565,4.6669,4.6601,4.66,4.6625,4.6618,4.664,4.6641,4.6631,4.6708,4.672,4.6769,4.6677,4.6903,4.6909,4.6915,4.6984,4.6998,4.7009,0,0,0,0,0,4.6469,4.655,4.6533,4.6547,4.6614,4.6672,4.6681,4.6667,4.6629,4.6666,4.667,4.664,4.6757,4.6716,4.6729,4.678,4.6899,4.6907,4.6915,4.6978,4.6995,4.7009,0,0,0,0,0,0,4.6537,4.6553,4.6534,4.6624,4.6647,4.6663,4.671,4.6687,4.6721,4.6713,4.6695,4.6701,4.6777,4.6786,4.674,4.6874,4.6821,4.6832,4.6865,4.6881,4.6893,4.6888,4.6682,0,0,0,0,0,4.6563,4.661,4.6621,4.6699,4.6712,4.6709,4.6734,4.6722,4.6745,4.6754,4.6764,4.6787,4.6827,4.6855,4.6894,4.6986,4.6987,4.7027,4.704,4.705,4.7059,4.7103,4.7119,4.6945,4.6944,4.6944,0,0,4.6616,4.663,4.6661,4.6713,4.6729,4.6776,4.6718,4.6772,4.6805,4.6763,4.683,4.6838,4.6862,4.6944,4.698,4.6954,4.7108,4.706,4.7069,4.7072,4.7112,4.7129,4.7144,4.695,4.6949,4.6948,0,0,4.6735,4.6753,4.6817,4.6835,4.686,4.6857,4.6872,4.6891,4.6894,4.6962,4.6929,4.6969,4.7042,4.7059,4.7077,4.7199,4.7171,4.7212,4.7278,4.7321,4.7335,4.7347,4.7386,4.74,4.7222,4.7222,4.7222,0,4.6798,4.6868,4.6854,4.6908,4.693,4.6893,4.6956,4.6973,4.701,4.7025,4.6996,4.7082,4.7097,4.7179,4.7208,4.7226,4.724,4.7208,4.7334,4.7346,4.7357,4.7394,4.7409,4.7226,4.7226,4.7225,4.7225,0,4.6941,4.699,4.7039,4.7074,4.7101,4.7161,4.7152,4.7182,4.7167,4.7166,4.7233,4.7249,4.7287,4.7307,4.7294,4.7386,4.7368,4.7337,4.7283,4.7378,4.7412,4.7427,4.7233,4.7231,4.723,4.7229,0,0,4.7105,4.7128,4.7146,4.7159,4.7183,4.722,4.7276,4.7313,4.7336,4.7363,4.7406,4.7467,4.7437,4.7457,4.7445,4.7484,4.7573,4.7447,4.7447,4.7466,4.767,4.769,4.7707,4.7556,4.7559,4.7561,4.7666,0,4.7222,4.7317,4.7304,4.7395,4.7437,4.7402,4.7449,4.7468,4.7468,4.7503,4.7504,4.7545,4.7505,4.7516,4.7553,4.7554,4.7613,4.7547,4.7593,4.7595,4.7584,4.7725,4.7748,4.7847,4.768,4.7682,4.7684,0,4.737,4.7399,4.7494,4.7506,4.7524,4.7567,4.7597,4.7633,4.7652,4.7649,4.767,4.765,4.7703,4.7651,4.7721,4.7676,4.7694,4.7698,4.7701,4.7702,4.7642,4.7725,4.7878,4.7892,4.7706,4.7704,4.7702,0,4.7473,4.7537,4.7601,4.7614,4.7631,4.7661,4.767,4.7686,4.7708,4.7734,4.7747,4.7781,4.7798,4.7823,4.7812,4.7775,4.7882,4.783,4.7879,4.7879,4.79,4.7898,4.8053,4.7919,4.7919,4.7919,4.7918,0,4.7602,4.7661,4.7646,4.7685,4.7748,4.7732,4.7794,4.7799,4.7812,4.7849,4.7822,4.7857,4.7842,4.7875,4.7867,4.7923,4.7933,4.793,4.7926,4.793,4.793,4.7939,4.793,4.7923,4.7922,4.7921,4.792,0,4.7727,4.7721,4.7787,4.7797,4.7801,4.7846,4.7854,4.7889,4.7887,4.7934,4.7944,4.7941,4.7978,4.797,4.8013,4.8006,4.8076,4.8066,4.8069,4.8065,4.8112,4.8106,4.8275,4.8294,4.8152,4.8153,4.8154,0,4.7808,4.7851,4.7865,4.7887,4.7898,4.7935,4.7956,4.7941,4.7964,4.7987,4.8018,4.8053,4.808,4.8142,4.8142,4.8173,4.8161,4.8218,4.8165,4.8166,4.8156,4.8152,4.8154,4.8227,4.8229,4.823,4.8232,0,4.7949,4.7943,4.7974,4.8004,4.8029,4.8052,4.8072,4.8092,4.8078,4.8105,4.8142,4.8163,4.8205,4.8239,4.8267,4.8274,4.8249,4.8248,4.826,4.8263,4.826,4.8257,4.8093,4.8244,4.8243,4.8242,4.8241,4.8241,4.8051,4.8086,4.81,4.8134,4.8147,4.8166,4.8197,4.8198,4.8229,4.8261,4.8251,4.8292,4.8307,4.8341,4.8352,4.8383,4.8361,4.838,4.8384,4.8388,4.8391,4.8259,4.8389,4.8389,4.8388,4.8388,4.8388,0,4.8187,4.8193,4.8225,4.8252,4.8279,4.8254,4.8274,4.8297,4.8334,4.835,4.8376,4.8417,4.8449,4.8451,4.8481,4.8505,4.8494,4.8513,4.8508,4.851,4.8411,4.8396,4.8521,4.8521,4.8521,4.852,4.852,4.852,4.826,4.8316,4.8311,4.8371,4.8377,4.8417,4.843,4.8446,4.8457,4.8504,4.853,4.8531,4.854,4.8569,4.8596,4.8596,4.8606,4.8628,4.8623,4.8531,4.8517,4.8504,4.8489,4.8632,4.8632,4.8718,4.8719,4.872]},{"header":{"parameterUnit":"m.s-1","parameterCategory":1,"la1":30.2991,"la2":30.254,"lo1":-89.0895,"lo2":-89.0444,"dy":0.0017,"dx":0.0017,"nx":28,"ny":28,"refTime":"2023-08-10T03:00:00:Z","depth":0,"parameterNumber":3,"parameterNumberName":"V-component_of_WINDS"},"data":[0,0,0,0,0,0,0,0,0,0,0,0,0,0,0,0,0,0,0,0,0,0,0,0,0,0,0,0,0,0,0,0,0,0,0,0,0,0,0,0,0,0,0,0,0,0,0,0,0,0,0,0,0,0,0,0,0,0,5.6697,5.6698,0,5.679,5.6792,5.6793,5.6761,5.6759,5.6757,5.6755,5.6846,5.685,5.6854,0,0,0,0,0,0,0,0,0,0,0,0,0,5.6483,5.6487,5.6697,5.6698,5.6699,5.679,5.6792,5.6793,5.6762,5.6759,5.6757,5.6754,5.6844,5.6849,5.6854,0,0,0,0,0,0,0,0,0,0,0,0,0,5.6576,5.6489,5.6696,5.6695,5.6695,5.679,5.6792,5.6793,5.6762,5.6759,5.6756,5.6753,5.6843,5.6849,5.6855,5.6956,0,0,5.6875,5.6878,0,0,0,0,0,0,0,0,5.6571,5.6584,5.6694,5.6695,5.6696,5.6761,5.6749,5.6847,5.6763,5.6737,5.6755,5.6752,5.682,5.6828,5.6852,5.696,5.6964,5.6875,5.6879,5.6882,5.6884,0,0,0,0,0,0,0,5.6564,5.658,5.6733,5.6695,5.6697,5.6687,5.6696,5.6768,5.6794,5.6739,5.6737,5.6748,5.682,5.6846,5.6854,5.6965,5.6875,5.6881,5.6885,5.6887,5.7156,5.7159,0,0,0,0,0,0,5.6558,5.6575,5.6731,5.6736,5.6625,5.6693,5.6704,5.6743,5.6793,5.6798,5.6751,5.6747,5.6836,5.6846,5.6857,5.6975,5.6882,5.6888,5.6892,5.7153,5.7157,5.716,0,0,0,0,0,0,5.6554,5.6573,5.6727,5.6655,5.6674,5.67,5.6744,5.6747,5.6773,5.6802,5.6806,5.6773,5.6834,5.6848,5.6931,5.6978,5.6891,5.6897,5.7149,5.7154,5.7159,5.7214,0,0,0,0,0,0,5.6548,5.6571,5.6612,5.6656,5.6678,5.6802,5.6747,5.6751,5.6785,5.678,5.6824,5.6829,5.6833,5.6921,5.6937,5.6985,5.6902,5.7145,5.7151,5.7157,5.7208,5.7221,5.7231,0,0,0,0,0,5.654,5.6623,5.6614,5.6633,5.6729,5.6805,5.6817,5.6821,5.6789,5.6828,5.6846,5.6827,5.6971,5.693,5.6948,5.6998,5.7142,5.715,5.7157,5.7203,5.7218,5.7231,0,0,0,0,0,0,5.6582,5.6629,5.6619,5.6719,5.6758,5.6799,5.6849,5.6837,5.6885,5.6879,5.6881,5.6891,5.6976,5.6995,5.695,5.7096,5.7051,5.7062,5.708,5.7095,5.7106,5.7098,5.6907,0,0,0,0,0,5.6603,5.6662,5.6699,5.6784,5.6804,5.6823,5.6856,5.6857,5.6896,5.6912,5.6937,5.6974,5.7027,5.7062,5.7113,5.7211,5.7219,5.7255,5.7266,5.7275,5.7284,5.7334,5.735,5.7185,5.7185,5.7185,0,0,5.6646,5.6679,5.6716,5.6793,5.6823,5.6882,5.6837,5.6902,5.6945,5.6921,5.7001,5.7021,5.7062,5.7153,5.7194,5.7172,5.7331,5.7284,5.7291,5.7296,5.7343,5.7359,5.7373,5.719,5.7189,5.7188,0,0,5.6755,5.6787,5.686,5.6891,5.6938,5.695,5.6967,5.701,5.7022,5.7103,5.7086,5.7135,5.7228,5.7257,5.7285,5.7402,5.7385,5.7419,5.7477,5.7526,5.7539,5.755,5.759,5.7604,5.7428,5.7428,5.7428,0,5.6802,5.6893,5.6898,5.6964,5.6997,5.698,5.7051,5.708,5.7141,5.7162,5.7138,5.7251,5.7279,5.7374,5.7403,5.7426,5.7444,5.7413,5.7537,5.7549,5.7559,5.7597,5.7612,5.7432,5.7431,5.7431,5.7431,0,5.6947,5.701,5.7062,5.7122,5.7161,5.7229,5.7242,5.728,5.7277,5.729,5.7371,5.7403,5.7458,5.7481,5.7478,5.7576,5.756,5.7537,5.7491,5.7579,5.7614,5.7628,5.7437,5.7436,5.7435,5.7434,0,0,5.7085,5.7146,5.7165,5.7191,5.724,5.7287,5.7354,5.7409,5.7441,5.7482,5.7536,5.7614,5.7591,5.7622,5.7622,5.7665,5.7753,5.7635,5.7636,5.7654,5.7859,5.7875,5.7892,5.7743,5.7745,5.7748,5.7854,0,5.7196,5.7314,5.732,5.7427,5.7482,5.7466,5.7523,5.7558,5.7572,5.762,5.7635,5.7689,5.7657,5.7675,5.7717,5.7733,5.7794,5.7726,5.7789,5.7792,5.7778,5.7911,5.7929,5.8028,5.7868,5.7871,5.7873,0,5.7341,5.7388,5.7501,5.754,5.7564,5.7615,5.7665,5.7712,5.775,5.7757,5.7791,5.7784,5.7849,5.7802,5.7889,5.7843,5.7869,5.7881,5.7885,5.7889,5.7836,5.7916,5.806,5.8074,5.7895,5.7893,5.7891,0,5.7427,5.7518,5.7597,5.762,5.7668,5.7704,5.7726,5.7761,5.7794,5.7837,5.7857,5.7907,5.7934,5.7971,5.7976,5.7942,5.8063,5.8017,5.8068,5.8068,5.8093,5.8091,5.8241,5.8113,5.8113,5.8113,5.8113,0,5.7549,5.7618,5.7636,5.7684,5.7759,5.7764,5.7838,5.7856,5.7888,5.7937,5.7925,5.7971,5.7977,5.8023,5.8028,5.8098,5.811,5.8116,5.8115,5.8116,5.8115,5.8131,5.8124,5.8117,5.8116,5.8115,5.8115,0,5.7657,5.7673,5.7756,5.7796,5.7807,5.786,5.7892,5.7937,5.7949,5.8012,5.8026,5.8045,5.8099,5.8109,5.8173,5.8175,5.8258,5.8252,5.8246,5.8244,5.8294,5.8288,5.8458,5.8479,5.834,5.8341,5.8342,0,5.7733,5.7786,5.7831,5.7863,5.7887,5.794,5.7973,5.7979,5.8013,5.806,5.8098,5.8151,5.8194,5.828,5.8298,5.8346,5.8339,5.8396,5.8346,5.8344,5.8337,5.8333,5.8337,5.8404,5.8406,5.8407,5.8408,0,5.7866,5.787,5.7919,5.7971,5.801,5.8051,5.8089,5.8116,5.8126,5.8165,5.8221,5.8254,5.8319,5.837,5.8418,5.8437,5.8423,5.8424,5.8438,5.8437,5.843,5.8432,5.8269,5.8419,5.8418,5.8417,5.8417,5.8416,5.7958,5.8003,5.8041,5.8095,5.8125,5.816,5.8203,5.8221,5.8269,5.8323,5.8323,5.8383,5.8417,5.8479,5.8502,5.8547,5.8529,5.8549,5.8554,5.8559,5.8562,5.8425,5.8556,5.8556,5.8555,5.8555,5.8555,0,5.8088,5.8111,5.8161,5.8215,5.8257,5.8243,5.8284,5.8319,5.8372,5.8406,5.8449,5.8511,5.8561,5.8583,5.8631,5.8663,5.8658,5.8675,5.8671,5.8675,5.8577,5.8559,5.8678,5.8678,5.8678,5.8678,5.8678,5.8678,5.816,5.8235,5.8243,5.8331,5.8353,5.8413,5.8437,5.8469,5.8496,5.8567,5.8608,5.8623,5.8651,5.8701,5.8745,5.8749,5.8766,5.8786,5.8788,5.8695,5.8683,5.8671,5.8654,5.8791,5.8791,5.8882,5.8883,5.8884]}]]